Shelbyville, IN

12:27 AM EST on November 12, 2019 (GMT -0500)
Shelbyville Municipal

Weather History for KGEZ - September, 2019

Change the Weather History Date:

Monday, September 2, 2019

  Actual Average Record
Temperature  
Mean Temperature 73 °F 70 °F  
Max Temperature 82 °F 82 °F 97 °F (2011)
Min Temperature 63 °F 58 °F 51 °F (2007)
Degree Days  
Heating Degree Days 0 0  
Month to date heating degree days 0 0  
Since 1 July heating degree days 0 6  
Cooling Degree Days 8 6  
Month to date cooling degree days 16 12  
Year to date cooling degree days 1077 818  
Growing Degree Days 22 (Base 50)    
Moisture  
Dew Point 64 °F    
Average Humidity 72    
Maximum Humidity 93    
Minimum Humidity 51    
Precipitation  
Precipitation 0.00 in 0.10 in 1.55 in (2014)
Month to date precipitation 0.52 0.21  
Year to date precipitation 31.98 30.49  
Sea Level Pressure  
Sea Level Pressure 30.09 in    
Wind  
Wind Speed 3 mph (NNW)    
Max Wind Speed 10 mph    
Max Gust Speed 14 mph    
Visibility 6 miles    
Events Fog    
T = Trace of Precipitation, MM = Missing Value Source: NWS Daily Summary

Daily Weather History Graph

Daily Weather History Graph

Search for Another Location

Airport or City:

Astronomy

Sep. 02, 2019 Rise Set
Actual Time 7:12 AM EDT 8:12 PM EDT
Civil Twilight 6:44 AM EDT 8:40 PM EDT
Nautical Twilight 6:11 AM EDT 9:13 PM EDT
Astronomical Twilight 5:37 AM EDT 9:47 PM EDT
Moon 10:53 AM EDT (9/2) 10:35 PM EDT (9/2)
Length of Visible Light 13h 55m
Length of Day
13h 00m
Waxing Crescent, 15% of the Moon is Illuminated
Sep 2
Waxing Crescent
Sep 5
First Quarter
Sep 14
Full
Sep 21
Last Quarter
Sep 28
New

Hourly Weather History & Observations

Time (EDT) Temp. Heat Index Dew Point Humidity Pressure Visibility Wind Dir Wind Speed Gust Speed Precip Events Conditions
12:53 AM 68.0 °F - 66.0 °F 93% 30.06 in 8.0 mi Calm Calm - N/A   Mostly Cloudy
1:53 AM 68.0 °F - 64.9 °F 90% 30.06 in 6.0 mi Calm Calm - N/A   Mostly Cloudy
2:53 AM 66.0 °F - 64.0 °F 93% 30.06 in 5.0 mi North 3.5 mph - N/A   Partly Cloudy
3:53 AM 66.0 °F - 63.0 °F 90% 30.05 in 5.0 mi Calm Calm - N/A   Mostly Cloudy
4:42 AM 66.0 °F - 64.0 °F 93% 30.08 in 2.5 mi Calm Calm - N/A   Mostly Cloudy
4:53 AM 66.9 °F - 64.0 °F 90% 30.06 in 1.8 mi Calm Calm - N/A   Overcast
5:09 AM 66.9 °F - 64.0 °F 90% 30.08 in 2.0 mi Calm Calm - N/A   Overcast
5:30 AM 66.9 °F - 64.0 °F 90% 30.08 in 3.0 mi Calm Calm - N/A   Mostly Cloudy
5:39 AM 66.0 °F - 64.0 °F 93% 30.08 in 3.0 mi NW 4.6 mph - N/A   Scattered Clouds
5:48 AM 66.2 °F - 62.6 °F 88% 30.09 in 2.0 mi NW 3.5 mph - N/A   Partly Cloudy
5:53 AM 66.0 °F - 63.0 °F 90% 30.07 in 1.5 mi Calm Calm - N/A   Clear
6:12 AM 64.0 °F - 62.1 °F 93% 30.08 in 1.2 mi Calm Calm - N/A   Scattered Clouds
6:17 AM 64.0 °F - 61.0 °F 90% 30.09 in 0.8 mi Calm Calm - N/A   Mist
6:27 AM 63.0 °F - 61.0 °F 93% 30.09 in 0.2 mi Calm Calm - N/A Fog Fog
6:50 AM 64.4 °F - 62.6 °F 94% 30.09 in 0.2 mi NW 3.5 mph - N/A Fog Fog
6:53 AM 64.0 °F - 62.1 °F 93% 30.07 in 0.5 mi NW 3.5 mph - N/A Fog Fog
7:15 AM 64.0 °F - 61.0 °F 90% 30.09 in 0.2 mi NNW 4.6 mph - N/A Fog Fog
7:49 AM 64.4 °F - 62.6 °F 94% 30.10 in 0.2 mi Calm Calm - N/A Fog Fog
7:53 AM 64.9 °F - 63.0 °F 93% 30.09 in 0.2 mi NNW 3.5 mph - N/A Fog Fog
8:02 AM 64.9 °F - 63.0 °F 93% 30.11 in 1.0 mi NNW 3.5 mph - N/A   Partly Cloudy
8:12 AM 66.0 °F - 64.0 °F 93% 30.11 in 2.5 mi NNW 3.5 mph - N/A   Scattered Clouds
8:21 AM 66.9 °F - 64.9 °F 93% 30.11 in 3.0 mi NNW 4.6 mph - N/A   Scattered Clouds
8:29 AM 66.9 °F - 64.9 °F 93% 30.11 in 4.0 mi North 4.6 mph - N/A   Mostly Cloudy
8:37 AM 68.0 °F - 64.9 °F 90% 30.11 in 4.0 mi NNW 3.5 mph - N/A   Scattered Clouds
8:44 AM 68.0 °F - 64.9 °F 90% 30.12 in 4.0 mi NW 4.6 mph - N/A   Mostly Cloudy
8:53 AM 68.0 °F - 64.9 °F 90% 30.11 in 4.0 mi NNW 9.2 mph - N/A   Mostly Cloudy
9:31 AM 69.1 °F - 66.0 °F 90% 30.12 in 5.0 mi NNW 4.6 mph - N/A   Overcast
9:53 AM 70.0 °F - 66.0 °F 87% 30.11 in 7.0 mi North 8.1 mph - N/A   Overcast
10:17 AM 71.1 °F - 64.9 °F 81% 30.13 in 10.0 mi NNW 6.9 mph - N/A   Overcast
10:25 AM 71.1 °F - 64.9 °F 81% 30.13 in 10.0 mi North 8.1 mph - N/A   Overcast
10:53 AM 73.0 °F - 64.9 °F 76% 30.12 in 10.0 mi NNW 5.8 mph - N/A   Mostly Cloudy
11:53 AM 75.9 °F - 64.9 °F 69% 30.12 in 10.0 mi Variable 4.6 mph - N/A   Mostly Cloudy
12:03 PM 75.0 °F - 63.0 °F 66% 30.14 in 10.0 mi NNW 6.9 mph - N/A   Mostly Cloudy
12:53 PM 78.1 °F - 64.0 °F 62% 30.11 in 10.0 mi Variable 3.5 mph - N/A   Mostly Cloudy
1:01 PM 75.0 °F - 64.0 °F 69% 30.13 in 10.0 mi NW 5.8 mph - N/A   Mostly Cloudy
1:08 PM 75.9 °F - 64.0 °F 67% 30.13 in 10.0 mi Variable 4.6 mph - N/A   Mostly Cloudy
1:53 PM 78.1 °F - 64.0 °F 62% 30.10 in 10.0 mi West 3.5 mph - N/A   Scattered Clouds
2:53 PM 79.0 °F - 64.0 °F 60% 30.09 in 10.0 mi WNW 6.9 mph - N/A   Mostly Cloudy
3:53 PM 80.1 °F 81.2 °F 62.1 °F 54% 30.08 in 10.0 mi Calm Calm - N/A   Partly Cloudy
4:53 PM 81.0 °F 82.2 °F 63.0 °F 54% 30.08 in 10.0 mi NW 5.8 mph - N/A   Clear
5:53 PM 81.0 °F 81.6 °F 60.1 °F 49% 30.07 in 10.0 mi Calm Calm - N/A   Clear
6:53 PM 80.1 °F 81.5 °F 63.0 °F 56% 30.06 in 10.0 mi North 3.5 mph - N/A   Clear
7:53 PM 75.9 °F - 66.9 °F 74% 30.06 in 10.0 mi Calm Calm - N/A   Clear
8:53 PM 69.1 °F - 64.9 °F 87% 30.06 in 10.0 mi Calm Calm - N/A   Clear
9:53 PM 68.0 °F - 63.0 °F 84% 30.06 in 10.0 mi Calm Calm - N/A   Clear
10:53 PM 66.0 °F - 62.1 °F 87% 30.08 in 10.0 mi Calm Calm - N/A   Clear
11:53 PM 64.9 °F - 61.0 °F 87% 30.08 in 10.0 mi Calm Calm - N/A   Clear